Location: Taaricht
(32.5378°N, 5.4251°W)
Time: 19:13:47
(UTC+00:00)

USA 234 - Pass Details

Date: 09 April 2020
Orbit: 1102 x 1106 km, 123.0° (Epoch: 14 May)

Event Time Altitude Azimuth Distance (km) Brightness Sun altitude
Rises 21:39:25 0° 36° (NE) 3,921 6.2 -33.8°
Reaches altitude 10° 21:41:58 10° 31° (NNE) 2,962 5.6 -34.2°
Maximum altitude 21:48:12 49° 319° (NW) 1,387 4.0 -35.2°
Drops below altitude 10° 21:54:26 10° 247° (WSW) 2,956 5.7 -36.2°
Sets 21:56:59 0° 242° (WSW) 3,912 6.4 -36.6°
